CW9825 Weather Reports


time (UTC)temp
F
wind
direction
speed
knots
gust
knots
rain 1hr
in
rain 24hr
in
rain mn
in
humidity
%
barometer
mb
20260905034515 73 99 4.3 8.7 0.00 0.00 0.00 84 1014.5
20260905034012 73 93 5.2 9.6 0.00 0.00 0.00 83 1014.4
20260905033512 73 99 5.2 9.6 0.00 0.00 0.00 83 1014.4
20260905033012 73 73 5.2 8.7 0.00 0.00 0.00 83 1014.5
20260905032512 74 55 4.3 7.8 0.00 0.00 0.00 82 1014.6
20260905032012 74 134 4.3 8.7 0.00 0.00 0.00 82 1014.8
20260905031516 74 86 2.6 8.7 0.00 0.00 0.00 81 1014.7
20260905031012 74 67 4.3 8.7 0.00 0.00 0.00 81 1014.7
20260905030511 74 117 2.6 5.2 0.00 0.00 0.00 81 1014.7
20260905030011 75 87 1.7 6.1 0.00 0.00 0.00 80 1014.8
20260905025510 75 124 1.7 6.1 0.00 0.00 0.00 79 1014.9
20260905025009 75 38 1.7 7.0 0.00 0.00 0.00 79 1014.7
20260905024513 75 123 2.6 7.8 0.00 0.00 0.00 79 1014.7
20260905024007 75 65 2.6 7.8 0.00 0.00 0.00 78 1014.5
20260905023507 75 69 3.5 7.8 0.00 0.00 0.00 77 1014.5
20260905023016 76 80 3.5 7.8 0.00 0.00 0.00 77 1014.5
20260905022507 76 98 3.5 7.0 0.00 0.00 0.00 76 1014.4
20260905022007 76 79 3.5 7.0 0.00 0.00 0.00 75 1014.5
20260905021507 77 106 3.5 7.0 0.00 0.00 0.00 74 1014.4
20260905021006 77 91 3.5 7.0 0.00 0.00 0.00 73 1014.3
20260905020504 77 90 3.5 7.8 0.00 0.00 0.00 72 1014.2
20260905020004 78 88 2.6 7.8 0.00 0.00 0.00 71 1014.1
20260905015505 78 83 3.5 6.1 0.00 0.00 0.00 70 1014.0
20260905015005 79 69 3.5 5.2 0.00 0.00 0.00 69 1014.0
20260905014504 79 73 1.7 6.1 0.00 0.00 0.00 68 1014.0
20260905014003 79 115 3.5 7.0 0.00 0.00 0.00 67 1013.9
20260905013504 80 78 2.6 7.8 0.00 0.00 0.00 66 1013.7
20260905013006 80 107 3.5 7.8 0.00 0.00 0.00 66 1013.6
20260905012503 80 74 2.6 7.0 0.00 0.00 0.00 64 1013.6
20260905012003 80 78 3.5 7.0 0.00 0.00 0.00 64 1013.4
20260905011503 81 103 4.3 7.0 0.00 0.00 0.00 64 1013.4
20260905011004 81 85 1.7 6.1 0.00 0.00 0.00 63 1013.4
20260905010501 81 69 2.6 4.3 0.00 0.00 0.00 63 1013.4
20260905010002 81 81 1.7 6.1 0.00 0.00 0.00 63 1013.4
20260905005502 82 103 2.6 6.1 0.00 0.00 0.00 63 1013.5
20260905005002 82 85 1.7 5.2 0.00 0.00 0.00 63 1013.4
20260905004502 82 98 1.7 7.0 0.00 0.00 0.00 63 1013.5
20260905004001 82 71 3.5 7.0 0.00 0.00 0.00 62 1013.5
20260905003501 83 98 2.6 6.1 0.00 0.00 0.00 62 1013.4
20260905003008 83 105 1.7 7.0 0.00 0.00 0.00 61 1013.4
20260905002501 83 106 2.6 7.0 0.00 0.00 0.00 60 1013.3
20260905002003 84 107 2.6 7.8 0.00 0.00 0.00 59 1013.3
20260905001501 84 93 3.5 7.8 0.00 0.00 0.00 58 1013.2
20260905001100 84 97 2.6 7.8 0.00 0.00 0.00 57 1013.3
20260905000604 84 90 3.5 7.8 0.00 0.00 0.00 58 1013.3
20260905000100 84 107 4.3 8.7 0.00 0.00 0.00 57 1013.3
20260904235600 85 72 4.3 8.7 0.00 0.00 0.00 57 1013.1
20260904235104 85 111 4.3 7.8 0.00 0.00 0.00 57 1013.1
20260904234600 85 114 4.3 7.8 0.00 0.00 0.00 56 1013.1
20260904234100 85 65 2.6 7.8 0.00 0.00 0.00 57 1013.0
20260904233600 85 69 3.5 7.8 0.00 0.00 0.00 57 1013.2
20260904233059 85 105 3.5 7.0 0.00 0.00 0.00 56 1013.0
20260904232559 85 101 2.6 7.0 0.00 0.00 0.00 55 1013.1
20260904232058 85 96 3.5 7.8 0.00 0.00 0.00 55 1013.0
20260904231559 85 78 3.5 7.8 0.00 0.00 0.00 55 1013.0
20260904231058 85 95 3.5 7.8 0.00 0.00 0.00 55 1013.1
20260904230558 86 107 2.6 7.8 0.00 0.00 0.00 55 1013.2
20260904230109 86 71 2.6 7.8 0.00 0.00 0.00 54 1013.2
20260904225558 86 51 3.5 7.8 0.00 0.00 0.00 53 1013.0
20260904225058 87 119 2.6 7.0 0.00 0.00 0.00 53 1013.0
20260904224620 87 84 2.6 6.1 0.00 0.00 0.00 53 1013.2
20260904224057 87 94 2.6 6.1 0.00 0.00 0.00 53 1013.2
20260904223558 87 77 0.9 7.0 0.00 0.00 0.00 53 1013.3
20260904223109 87 10 1.7 7.8 0.00 0.00 0.00 53 1013.2
20260904222558 87 64 3.5 9.6 0.00 0.00 0.00 53 1013.2
20260904222057 87 131 2.6 9.6 0.00 0.00 0.00 52 1013.1
20260904221624 87 171 2.6 5.2 0.00 0.00 0.00 51 1013.1
20260904221056 87 115 0.9 8.7 0.00 0.00 0.00 51 1013.2
20260904220556 87 115 4.3 7.8 0.00 0.00 0.00 52 1013.3
20260904220056 87 118 1.7 5.2 0.00 0.00 0.00 53 1013.1
20260904215559 87 113 0.9 7.0 0.00 0.00 0.00 53 1013.2
20260904215058 87 126 3.5 7.0 0.00 0.00 0.00 53 1013.2
20260904214555 86 67 2.6 6.1 0.00 0.00 0.00 53 1013.1
20260904214055 87 56 3.5 6.1 0.00 0.00 0.00 52 1013.2
20260904213555 87 46 2.6 5.2 0.00 0.00 0.00 53 1013.2
20260904213059 87 355 1.7 5.2 0.00 0.00 0.00 52 1013.2
20260904212555 87 42 3.5 7.0 0.00 0.00 0.00 51 1013.3
20260904212058 87 97 0.9 7.0 0.00 0.00 0.00 52 1013.3
20260904211555 87 95 3.5 7.0 0.00 0.00 0.00 52 1013.2
20260904211054 87 65 2.6 5.2 0.00 0.00 0.00 53 1013.4
20260904210554 87 38 2.6 9.6 0.00 0.00 0.00 54 1013.3
20260904210057 86 49 4.3 9.6 0.00 0.00 0.00 54 1013.3
20260904205554 86 48 3.5 7.0 0.00 0.00 0.00 54 1013.4
20260904205053 86 94 2.6 7.8 0.00 0.00 0.00 53 1013.4
20260904204553 87 65 3.5 8.7 0.00 0.00 0.00 53 1013.5
20260904204056 87 79 4.3 8.7 0.00 0.00 0.00 53 1013.5
20260904203554 87 67 3.5 7.8 0.00 0.00 0.00 54 1013.5
20260904203052 87 98 2.6 7.8 0.00 0.00 0.00 54 1013.6
20260904202553 87 68 2.6 7.8 0.00 0.00 0.00 54 1013.6
20260904202052 87 68 2.6 7.8 0.00 0.00 0.00 54 1013.7
20260904201603 87 79 0.9 6.1 0.00 0.00 0.00 54 1013.5
20260904201050 87 113 2.6 7.8 0.00 0.00 0.00 53 1013.7
20260904200550 86 105 2.6 7.0 0.00 0.00 0.00 54 1013.7
20260904200109 86 67 2.6 7.8 0.00 0.00 0.00 54 1013.6
20260904195549 86 15 2.6 7.8 0.00 0.00 0.00 54 1013.6
20260904195049 86 51 1.7 6.1 0.00 0.00 0.00 55 1013.6
20260904194552 86 100 3.5 7.8 0.00 0.00 0.00 54 1013.6
20260904194048 86 82 4.3 7.8 0.00 0.00 0.00 55 1013.6
20260904193548 86 81 2.6 7.0 0.00 0.00 0.00 54 1013.7
20260904193048 86 56 1.7 7.0 0.00 0.00 0.00 56 1013.8
20260904192547 86 36 2.6 7.8 0.00 0.00 0.00 55 1013.9
20260904192049 86 84 4.3 8.7 0.00 0.00 0.00 55 1013.9
20260904191548 85 103 5.2 8.7 0.00 0.00 0.00 56 1013.9
20260904191045 85 111 3.5 9.6 0.00 0.00 0.00 54 1013.9
20260904190544 85 96 4.3 9.6 0.00 0.00 0.00 58 1013.9
20260904190043 85 83 2.6 8.7 0.00 0.00 0.00 57 1013.9
20260904185543 85 80 3.5 8.7 0.00 0.00 0.00 56 1014.0
20260904185045 84 113 0.9 8.7 0.00 0.00 0.00 61 1014.0
20260904184543 84 66 4.3 10.4 0.00 0.00 0.00 59 1014.1
20260904184041 85 105 2.6 7.0 0.00 0.00 0.00 60 1014.1
20260904183541 84 59 1.7 8.7 0.00 0.00 0.00 61 1014.2
20260904183042 84 16 2.6 6.1 0.00 0.00 0.00 60 1014.2
20260904182539 84 42 1.7 6.1 0.00 0.00 0.00 59 1014.1
20260904182039 84 355 2.6 7.0 0.00 0.00 0.00 59 1014.1
20260904181538 83 360 1.7 5.2 0.00 0.00 0.00 62 1014.1
20260904181037 84 74 2.6 8.7 0.00 0.00 0.00 61 1014.2
20260904180536 83 360 3.5 8.7 0.00 0.00 0.00 62 1014.2
20260904180037 82 35 2.6 9.6 0.00 0.00 0.00 62 1014.1
20260904175539 82 49 2.6 9.6 0.00 0.00 0.00 63 1014.2
20260904175034 82 24 2.6 7.8 0.00 0.00 0.00 64 1014.2
20260904174533 83 54 4.3 7.8 0.00 0.00 0.00 64 1014.2
20260904174032 82 304 0.9 8.7 0.00 0.00 0.00 65 1014.1
20260904173531 82 349 1.7 10.4 0.00 0.00 0.00 65 1014.1
20260904173030 82 17 5.2 10.4 0.00 0.00 0.00 66 1014.1
20260904172530 81 21 3.5 7.8 0.00 0.00 0.00 67 1014.1
20260904172028 81 25 2.6 8.7 0.00 0.00 0.00 66 1014.1
20260904171551 81 92 3.5 8.7 0.00 0.00 0.00 67 1014.1
20260904171024 80 10 3.5 7.8 0.00 0.00 0.00 68 1014.1
20260904170528 80 22 1.7 8.7 0.00 0.00 0.00 69 1014.0
20260904170022 80 57 2.6 8.7 0.00 0.00 0.00 69 1014.2
20260904165525 79 35 3.5 7.0 0.00 0.00 0.00 69 1014.1
20260904165019 79 21 3.5 7.0 0.00 0.00 0.00 71 1014.1
20260904164520 78 331 1.7 5.2 0.00 0.00 0.00 72 1014.2
20260904164021 78 35 1.7 7.0 0.00 0.00 0.00 72 1014.1
20260904163517 79 15 1.7 7.0 0.00 0.00 0.00 74 1014.0
20260904163036 78 15 0.9 5.2 0.00 0.00 0.00 74 1014.0
20260904162515 77 355 1.7 5.2 0.00 0.00 0.00 75 1014.0
20260904162016 77 5 1.7 5.2 0.00 0.00 0.00 75 1014.1
20260904161512 77 46 2.6 7.0 0.00 0.00 0.00 76 1014.1
20260904161010 77 5 1.7 8.7 0.00 0.00 0.00 77 1014.1
20260904160509 76 16 3.5 8.7 0.00 0.00 0.00 78 1014.1
20260904160008 76 5 2.6 7.0 0.00 0.00 0.00 80 1014.0
20260904155506 75 88 2.6 7.8 0.00 0.00 0.00 78 1014.0
20260904155005 75 333 1.7 7.8 0.00 0.00 0.00 80 1013.9
20260904154505 75 11 2.6 7.0 0.00 0.00 0.00 81 1013.8
20260904154003 75 84 2.6 6.1 0.00 0.00 0.00 79 1013.8
20260904153502 75 53 1.7 6.1 0.00 0.00 0.00 80 1013.8
20260904153115 75 5 1.7 6.1 0.00 0.00 0.00 81 1013.9
20260904152558 74 24 1.7 6.1 0.00 0.00 0.00 81 1013.8
20260904152057 74 355 2.6 7.0 0.00 0.00 0.00 81 1013.8
20260904151556 74 9 2.6 7.0 0.00 0.00 0.00 82 1013.9
20260904151054 73 9 0.9 5.2 0.00 0.00 0.00 82 1013.9
20260904150552 73 24 1.7 4.3 0.00 0.00 0.00 83 1013.9
20260904150053 72 343 0.9 4.3 0.00 0.00 0.00 84 1013.9
20260904145549 72 335 1.7 4.3 0.00 0.00 0.00 85 1013.8
20260904145049 71 9 1.7 3.5 0.00 0.00 0.00 84 1013.8
20260904144554 72 16 0.9 2.6 0.00 0.00 0.00 84 1013.8
20260904144045 71 73 0.9 3.5 0.00 0.00 0.00 85 1013.7
20260904143544 71 18 0.9 3.5 0.00 0.00 0.00 87 1013.9
20260904143054 70 51 0.9 3.5 0.00 0.00 0.00 87 1013.7
20260904142541 69 19 0.9 4.3 0.00 0.00 0.00 90 1013.8
20260904142040 68 5 2.6 4.3 0.00 0.00 0.00 90 1013.8
20260904141540 67 43 1.7 4.3 0.00 0.00 0.00 90 1013.9
20260904141036 67 20 0.9 4.3 0.00 0.00 0.00 91 1013.9
20260904140538 67 15 0.0 5.2 0.00 0.00 0.00 91 1013.7
20260904140040 66 5 1.7 5.2 0.00 0.00 0.00 92 1013.7
20260904135537 66 24 1.7 5.2 0.00 0.00 0.00 93 1013.6
20260904135035 66 5 0.9 3.5 0.00 0.00 0.00 93 1013.7
20260904134534 65 5 0.9 3.5 0.00 0.00 0.00 94 1013.7
20260904134034 65 341 1.7 3.5 0.00 0.00 0.00 94 1013.6
20260904133535 64 360 0.0 2.6 0.00 0.00 0.00 94 1013.7
20260904133033 64 335 0.0 3.5 0.00 0.00 0.00 95 1013.6
20260904132534 64 18 0.9 3.5 0.00 0.00 0.00 95 1013.7
20260904132033 63 350 0.0 2.6 0.00 0.00 0.00 95 1013.6
20260904131534 63 330 0.0 2.6 0.00 0.00 0.00 95 1013.7
20260904131030 63 360 0.0 4.3 0.00 0.00 0.00 95 1013.5
20260904130531 63 5 1.7 4.3 0.00 0.00 0.00 95 1013.4
20260904130029 63 5 0.9 4.3 0.00 0.00 0.00 95 1013.1
20260904125529 62 19 0.9 4.3 0.00 0.00 0.00 95 1013.2
20260904125031 62 13 0.9 4.3 0.00 0.00 0.00 95 1013.2
20260904124528 62 23 0.0 2.6 0.00 0.00 0.00 95 1013.1
20260904124031 62 18 0.9 3.5 0.00 0.00 0.00 95 1013.0
20260904123531 62 340 0.9 2.6 0.00 0.00 0.00 95 1013.1
20260904123027 62 333 0.9 2.6 0.00 0.00 0.00 95 1013.1
20260904122527 61 333 0.0 2.6 0.00 0.00 0.00 95 1013.1
20260904122026 61 331 0.0 4.3 0.00 0.00 0.00 95 1013.0
20260904121524 61 331 0.0 4.3 0.00 0.00 0.00 95 1012.8
20260904121021 61 360 0.0 2.6 0.00 0.00 0.00 95 1012.7
20260904120521 61 5 0.9 3.5 0.00 0.00 0.00 95 1012.6
20260904120032 61 355 0.9 4.3 0.00 0.00 0.00 95 1012.4
20260904115520 61 22 1.7 5.2 0.00 0.00 0.00 95 1012.4
20260904115021 61 355 1.7 3.5 0.00 0.00 0.00 95 1012.3
20260904114520 61 348 0.0 2.6 0.00 0.00 0.00 95 1012.4
20260904114020 61 360 0.0 4.3 0.00 0.00 0.00 95 1012.4
20260904113520 61 341 0.9 2.6 0.00 0.00 0.00 95 1012.4
20260904113019 61 337 0.9 3.5 0.00 0.00 0.00 95 1012.5
20260904112517 62 348 0.0 3.5 0.00 0.00 0.00 95 1012.4
20260904112017 62 9 0.0 2.6 0.00 0.00 0.00 95 1012.2
20260904111521 62 5 0.0 2.6 0.00 0.00 0.00 94 1012.2
20260904111016 62 5 0.0 3.5 0.00 0.00 0.00 94 1012.3
20260904110515 62 355 0.0 3.5 0.00 0.00 0.00 94 1012.1
20260904110015 62 342 0.9 4.3 0.00 0.00 0.00 94 1012.1
20260904105515 62 32 0.9 4.3 0.00 0.00 0.00 95 1012.1
20260904105014 62 22 1.7 5.2 0.00 0.00 0.00 94 1012.1
20260904104513 62 5 1.7 5.2 0.00 0.00 0.00 94 1011.9
20260904104016 62 5 1.7 5.2 0.00 0.00 0.00 94 1011.8
20260904103518 62 342 0.9 3.5 0.00 0.00 0.00 94 1012.0
20260904103013 62 9 0.0 2.6 0.00 0.00 0.00 94 1012.0
20260904102513 62 9 0.0 3.5 0.00 0.00 0.00 94 1012.0
20260904102012 62 333 0.9 5.2 0.00 0.00 0.00 94 1012.0
20260904101517 62 347 1.7 5.2 0.00 0.00 0.00 94 1011.8
20260904101018 63 338 1.7 4.3 0.00 0.00 0.00 94 1011.8
20260904100510 63 35 1.7 4.3 0.00 0.00 0.00 94 1011.7
20260904100010 63 355 0.9 4.3 0.00 0.00 0.00 94 1011.7
20260904095509 63 332 1.7 5.2 0.00 0.00 0.00 94 1011.6
20260904095007 63 340 1.7 4.3 0.00 0.00 0.00 93 1011.6
20260904094506 63 11 0.0 7.0 0.00 0.00 0.00 93 1011.5
20260904094006 63 335 1.7 7.0 0.00 0.00 0.00 94 1011.4
20260904093508 63 24 0.9 7.0 0.00 0.00 0.00 93 1011.4
20260904093006 63 19 1.7 5.2 0.00 0.00 0.00 93 1011.4
20260904092505 63 30 1.7 5.2 0.00 0.00 0.00 93 1011.4
20260904092005 63 360 1.7 5.2 0.00 0.00 0.00 93 1011.4
20260904091505 63 31 1.7 4.3 0.00 0.00 0.00 93 1011.3
20260904091005 64 28 0.0 3.5 0.00 0.00 0.00 93 1011.4
20260904090505 64 5 0.9 3.5 0.00 0.00 0.00 93 1011.2
20260904090004 64 13 1.7 3.5 0.00 0.00 0.00 93 1011.1
20260904085504 64 11 0.9 3.5 0.00 0.00 0.00 93 1011.0
20260904085001 64 342 0.9 2.6 0.00 0.00 0.00 93 1011.0
20260904084501 64 344 0.0 2.6 0.00 0.00 0.00 93 1010.9
20260904084000 64 344 0.9 3.5 0.00 0.00 0.00 93 1010.8
20260904083604 64 5 0.9 3.5 0.00 0.00 0.00 93 1010.8
20260904083104 64 360 0.9 4.3 0.00 0.00 0.00 93 1010.7
20260904082600 64 18 0.9 4.3 0.00 0.00 0.00 93 1010.7
20260904082100 64 319 0.9 4.3 0.00 0.00 0.00 93 1010.8
20260904081600 64 355 0.9 4.3 0.00 0.00 0.00 93 1010.7
20260904081059 64 9 0.9 4.3 0.00 0.00 0.00 93 1010.8
20260904080602 64 5 0.0 3.5 0.00 0.00 0.00 93 1010.7
20260904080117 64 360 0.0 3.5 0.00 0.00 0.00 93 1010.8
20260904075602 64 5 0.0 3.5 0.00 0.00 0.00 93 1010.8
20260904075057 64 5 0.0 3.5 0.00 0.00 0.00 92 1010.7
20260904074556 64 325 0.9 3.5 0.00 0.00 0.00 93 1010.7
20260904074059 64 331 0.9 5.2 0.00 0.00 0.00 93 1010.6
20260904073555 65 340 1.7 5.2 0.00 0.00 0.00 93 1010.6
20260904073054 65 13 1.7 3.5 0.00 0.00 0.00 92 1010.6
20260904072557 65 355 1.7 3.5 0.00 0.00 0.00 92 1010.7
20260904072057 65 5 0.0 4.3 0.00 0.00 0.00 92 1010.6
20260904071554 65 360 0.9 3.5 0.00 0.00 0.00 92 1010.6
20260904071053 65 355 0.9 4.3 0.00 0.00 0.00 92 1010.7
20260904070552 65 355 0.9 4.3 0.00 0.00 0.00 92 1010.6
20260904070058 65 360 0.9 4.3 0.00 0.00 0.00 92 1010.6
20260904065553 65 5 0.9 5.2 0.00 0.00 0.00 91 1010.6
20260904065051 65 345 0.9 5.2 0.00 0.00 0.00 91 1010.7
20260904064551 65 355 1.7 7.8 0.00 0.00 0.00 91 1010.5
20260904064050 66 42 2.6 7.8 0.00 0.00 0.00 91 1010.5
20260904063549 66 5 2.6 8.7 0.00 0.00 0.00 91 1010.4
20260904063109 66 5 2.6 8.7 0.00 0.00 0.00 90 1010.4
20260904062547 66 40 2.6 7.0 0.00 0.00 0.00 90 1010.3
20260904062047 66 17 1.7 7.0 0.00 0.00 0.00 90 1010.3
20260904061546 67 26 2.6 8.7 0.00 0.00 0.00 90 1010.3
20260904061047 67 342 3.5 8.7 0.00 0.00 0.00 89 1010.2
20260904060543 67 30 3.5 7.8 0.00 0.00 0.00 89 1010.3
20260904060049 67 26 1.7 7.0 0.00 0.00 0.00 89 1010.3
20260904055542 67 5 1.7 7.0 0.00 0.00 0.00 89 1010.3
20260904055042 67 24 3.5 7.0 0.00 0.00 0.00 89 1010.3
20260904054546 68 13 2.6 7.0 0.00 0.00 0.00 89 1010.4
20260904054043 68 26 2.6 7.8 0.00 0.00 0.00 88 1010.3
20260904053540 68 17 3.5 7.8 0.00 0.00 0.00 89 1010.3
20260904053054 68 23 2.6 8.7 0.00 0.00 0.00 89 1010.3
20260904052539 68 343 2.6 8.7 0.00 0.00 0.00 89 1010.2
20260904052040 68 30 3.5 7.0 0.00 0.00 0.00 89 1010.0
20260904051538 68 21 2.6 8.7 0.00 0.00 0.00 89 1009.8
20260904051037 68 360 3.5 8.7 0.00 0.00 0.00 89 1009.6
20260904050535 68 71 2.6 7.0 0.00 0.00 0.00 89 1009.4
20260904050034 68 14 2.6 9.6 0.00 0.00 0.00 89 1009.4
20260904045534 68 24 3.5 10.4 0.00 0.00 0.00 89 1009.6
20260904045034 68 32 4.3 10.4 0.00 0.00 0.00 89 1009.5
20260904044537 68 24 3.5 13.0 0.00 0.00 0.00 89 1009.4
20260904044034 68 85 5.2 13.0 0.00 0.00 0.00 90 1009.4
20260904043533 68 344 4.3 10.4 0.00 0.00 0.00 90 1009.4
20260904043040 68 34 6.1 11.3 0.00 0.00 0.00 90 1009.4
20260904042533 68 22 4.3 11.3 0.00 0.00 0.00 90 1009.4
20260904042035 68 30 3.5 9.6 0.00 0.00 0.00 90 1009.4
20260904041532 68 25 4.3 8.7 0.00 0.00 0.00 90 1009.3
20260904041032 68 15 4.3 10.4 0.00 0.00 0.00 90 1009.3
20260904040531 67 355 4.3 10.4 0.00 0.00 0.00 90 1009.2
20260904040031 68 27 3.5 10.4 0.00 0.00 0.00 90 1009.3
20260904035531 68 5 4.3 10.4 0.00 0.00 0.00 89 1009.2
20260904035031 68 346 5.2 11.3 0.00 0.00 0.00 89 1009.1